[[{"header":{"parameterUnit":"m.s-1","parameterCategory":1,"la1":30.2991,"la2":30.254,"lo1":-89.0895,"lo2":-89.0444,"dy":0.0017,"dx":0.0017,"nx":28,"ny":28,"refTime":"2023-10-23T21:00:00:Z","depth":0,"parameterNumber":2,"parameterNumberName":"U-component_of_WINDS"},"data":[0,0,0,0,0,0,0,0,0,0,0,0,0,0,0,0,0,0,0,0,0,0,0,0,0,0,0,0,0,0,0,0,0,0,0,0,0,0,0,0,0,0,0,0,0,0,0,0,0,0,0,0,0,0,0,0,0,0,-5.8871,-5.8873,0,-5.9026,-5.9028,-5.903,-5.8996,-5.8993,-5.899,-5.8988,-5.9146,-5.9153,-5.916,0,0,0,0,0,0,0,0,0,0,0,0,0,-5.8548,-5.8554,-5.8871,-5.8873,-5.8875,-5.9026,-5.9028,-5.903,-5.8997,-5.8993,-5.899,-5.8986,-5.9144,-5.9152,-5.916,0,0,0,0,0,0,0,0,0,0,0,0,0,-5.8694,-5.8556,-5.887,-5.8876,-5.8878,-5.9025,-5.9028,-5.9031,-5.8997,-5.8993,-5.8989,-5.8985,-5.9141,-5.9151,-5.9161,-5.9312,0,0,-5.9193,-5.9198,0,0,0,0,0,0,0,0,-5.8686,-5.8706,-5.8873,-5.8876,-5.8879,-5.8987,-5.8972,-5.9125,-5.8999,-5.8952,-5.8988,-5.8983,-5.9097,-5.9111,-5.9149,-5.932,-5.9326,-5.9194,-5.92,-5.9205,-5.9208,0,0,0,0,0,0,0,-5.8676,-5.8699,-5.8932,-5.8876,-5.8879,-5.8872,-5.8888,-5.9001,-5.9047,-5.8956,-5.8954,-5.8973,-5.9097,-5.9139,-5.9153,-5.9329,-5.9194,-5.9203,-5.9209,-5.9213,-5.9634,-5.9638,0,0,0,0,0,0,-5.8663,-5.8691,-5.8927,-5.8937,-5.877,-5.8881,-5.8899,-5.8957,-5.9046,-5.9055,-5.8976,-5.8971,-5.9124,-5.9141,-5.9158,-5.9341,-5.9205,-5.9214,-5.922,-5.9629,-5.9635,-5.964,0,0,0,0,0,0,-5.8656,-5.8685,-5.8921,-5.8814,-5.8843,-5.8891,-5.8957,-5.8962,-5.9004,-5.9061,-5.9069,-5.901,-5.9121,-5.9143,-5.9275,-5.9346,-5.9219,-5.9229,-5.9623,-5.9631,-5.9638,-5.9707,0,0,0,0,0,0,-5.8647,-5.8682,-5.8739,-5.8815,-5.8849,-5.9034,-5.8961,-5.8968,-5.9022,-5.9016,-5.9095,-5.9104,-5.9119,-5.9259,-5.9285,-5.9358,-5.9237,-5.9617,-5.9626,-5.9635,-5.9699,-5.9716,-5.9731,0,0,0,0,0,-5.8636,-5.8752,-5.8742,-5.8771,-5.8921,-5.9038,-5.9058,-5.9073,-5.9028,-5.9085,-5.9123,-5.9101,-5.9335,-5.9273,-5.9302,-5.9379,-5.9612,-5.9624,-5.9634,-5.9691,-5.9713,-5.9731,0,0,0,0,0,0,-5.8681,-5.8761,-5.8751,-5.8895,-5.8961,-5.9032,-5.9105,-5.9094,-5.9173,-5.9164,-5.918,-5.9199,-5.9332,-5.9369,-5.9299,-5.9531,-5.9467,-5.9485,-5.9501,-5.9521,-5.9537,-5.9524,-5.9245,0,0,0,0,0,-5.8708,-5.8796,-5.8862,-5.8983,-5.9016,-5.9056,-5.9107,-5.9114,-5.9182,-5.9209,-5.9256,-5.9323,-5.9412,-5.9469,-5.9554,-5.9706,-5.9723,-5.9773,-5.9789,-5.9802,-5.9816,-5.9901,-5.9924,-5.9677,-5.9677,-5.9676,0,0,-5.8763,-5.8819,-5.8873,-5.8994,-5.9044,-5.9136,-5.9079,-5.9178,-5.9246,-5.9224,-5.935,-5.9388,-5.9464,-5.9607,-5.9672,-5.9642,-5.9889,-5.9817,-5.9826,-5.9833,-5.9915,-5.9938,-5.9959,-5.9684,-5.9683,-5.9682,0,0,-5.8911,-5.8962,-5.9069,-5.9123,-5.9202,-5.9228,-5.9254,-5.933,-5.9354,-5.9482,-5.9468,-5.9551,-5.9703,-5.9758,-5.9806,-5.9982,-5.9965,-6.001,-6.0092,-6.0175,-6.0194,-6.0211,-6.0273,-6.0296,-6.0024,-6.0024,-6.0024,0,-5.897,-5.9107,-5.9125,-5.9226,-5.928,-5.9268,-5.9376,-5.9428,-5.953,-5.9568,-5.9534,-5.9726,-5.9777,-5.9933,-5.9976,-6.0016,-6.0046,-5.9998,-6.019,-6.0207,-6.0224,-6.0283,-6.0307,-6.0029,-6.0028,-6.0028,-6.0027,0,-5.9176,-5.9272,-5.9349,-5.945,-5.9513,-5.9618,-5.9652,-5.9715,-5.9718,-5.9749,-5.9881,-5.9942,-6.004,-6.0078,-6.0082,-6.0237,-6.0215,-6.0186,-6.0121,-6.0252,-6.0308,-6.0331,-6.0035,-6.0034,-6.0032,-6.0031,0,0,-5.935,-5.9464,-5.9491,-5.9538,-5.9627,-5.9702,-5.9809,-5.9905,-5.9958,-6.0032,-6.0121,-6.0253,-6.0227,-6.0282,-6.0293,-6.0366,-6.0501,-6.0327,-6.0329,-6.0356,-6.0676,-6.0695,-6.0721,-6.0493,-6.0498,-6.0501,-6.0669,0,-5.9504,-5.969,-5.9712,-5.9877,-5.9967,-5.996,-6.0053,-6.0118,-6.0152,-6.0233,-6.0271,-6.0363,-6.0323,-6.0356,-6.0428,-6.0469,-6.0565,-6.0458,-6.0576,-6.0579,-6.0553,-6.0751,-6.0771,-6.0926,-6.0691,-6.0695,-6.0698,0,-5.9707,-5.9788,-5.9963,-6.0044,-6.0082,-6.0165,-6.0257,-6.0336,-6.0411,-6.0431,-6.0495,-6.0498,-6.0609,-6.0544,-6.0698,-6.0625,-6.0675,-6.0704,-6.071,-6.0718,-6.0643,-6.0763,-6.0976,-6.0998,-6.0733,-6.073,-6.0727,0,-5.9815,-5.9968,-6.0093,-6.0134,-6.0231,-6.0289,-6.0333,-6.0404,-6.0463,-6.0544,-6.0582,-6.0676,-6.0726,-6.08,-6.0828,-6.0779,-6.0981,-6.0918,-6.1,-6.0999,-6.1039,-6.1035,-6.1261,-6.1077,-6.1077,-6.1076,-6.1076,0,-5.9983,-6.009,-6.0143,-6.0219,-6.034,-6.0367,-6.0486,-6.0527,-6.0592,-6.0677,-6.0678,-6.0758,-6.0793,-6.0879,-6.0903,-6.1027,-6.105,-6.1069,-6.1074,-6.1067,-6.1065,-6.1097,-6.1086,-6.1082,-6.1081,-6.108,-6.1079,0,-6.0121,-6.0161,-6.0297,-6.038,-6.0403,-6.0489,-6.056,-6.0635,-6.067,-6.0778,-6.0805,-6.086,-6.0962,-6.0999,-6.1123,-6.114,-6.1283,-6.128,-6.1257,-6.1257,-6.1336,-6.1327,-6.1588,-6.1623,-6.1418,-6.142,-6.1422,0,-6.0223,-6.0306,-6.0399,-6.0457,-6.0503,-6.0595,-6.0656,-6.0687,-6.075,-6.0845,-6.0909,-6.1012,-6.1094,-6.1258,-6.1309,-6.1405,-6.1403,-6.1488,-6.1417,-6.1409,-6.1402,-6.1395,-6.1404,-6.15,-6.1502,-6.1503,-6.1505,0,-6.0401,-6.0418,-6.0505,-6.06,-6.0673,-6.0749,-6.0823,-6.0871,-6.0913,-6.0985,-6.109,-6.1154,-6.1283,-6.1384,-6.1484,-6.153,-6.1525,-6.1528,-6.1552,-6.1544,-6.1526,-6.1535,-6.129,-6.152,-6.1519,-6.1518,-6.1517,-6.1516,-6.0523,-6.0597,-6.0675,-6.0772,-6.0833,-6.0903,-6.0978,-6.1025,-6.1113,-6.122,-6.1234,-6.1347,-6.1426,-6.1559,-6.161,-6.1699,-6.1676,-6.1711,-6.1719,-6.1726,-6.1731,-6.1516,-6.1718,-6.1718,-6.1717,-6.1717,-6.1717,0,-6.0699,-6.075,-6.084,-6.0945,-6.1023,-6.1015,-6.1098,-6.1163,-6.1263,-6.1337,-6.142,-6.1542,-6.1642,-6.1704,-6.1805,-6.1865,-6.1866,-6.189,-6.1884,-6.1895,-6.1747,-6.1715,-6.1888,-6.1888,-6.1888,-6.1888,-6.1888,-6.1888,-6.0799,-6.0924,-6.0951,-6.1107,-6.1158,-6.1269,-6.1317,-6.1383,-6.1443,-6.158,-6.1663,-6.1704,-6.1773,-6.188,-6.1973,-6.1988,-6.2025,-6.2051,-6.2064,-6.1923,-6.1905,-6.1888,-6.1859,-6.2059,-6.206,-6.2205,-6.2207,-6.2208]},{"header":{"parameterUnit":"m.s-1","parameterCategory":1,"la1":30.2991,"la2":30.254,"lo1":-89.0895,"lo2":-89.0444,"dy":0.0017,"dx":0.0017,"nx":28,"ny":28,"refTime":"2023-10-23T21:00:00:Z","depth":0,"parameterNumber":3,"parameterNumberName":"V-component_of_WINDS"},"data":[0,0,0,0,0,0,0,0,0,0,0,0,0,0,0,0,0,0,0,0,0,0,0,0,0,0,0,0,0,0,0,0,0,0,0,0,0,0,0,0,0,0,0,0,0,0,0,0,0,0,0,0,0,0,0,0,0,0,1.8399,1.8399,0,1.8395,1.8395,1.8395,1.8336,1.8334,1.8333,1.8332,1.833,1.8331,1.8332,0,0,0,0,0,0,0,0,0,0,0,0,0,1.8362,1.8363,1.8399,1.8399,1.8399,1.8395,1.8395,1.8395,1.8336,1.8334,1.8333,1.8331,1.8329,1.8331,1.8332,0,0,0,0,0,0,0,0,0,0,0,0,0,1.837,1.8363,1.8399,1.8369,1.8367,1.8395,1.8395,1.8395,1.8337,1.8334,1.8332,1.833,1.8329,1.8331,1.8333,1.839,0,0,1.8339,1.834,0,0,0,0,0,0,0,0,1.8369,1.8371,1.8374,1.8371,1.8368,1.8364,1.8381,1.8393,1.8337,1.8348,1.8332,1.8329,1.8343,1.8344,1.8348,1.839,1.839,1.8339,1.834,1.8341,1.8342,0,0,0,0,0,0,0,1.8369,1.8371,1.8397,1.8374,1.8371,1.8358,1.8356,1.8383,1.8358,1.8347,1.8343,1.8343,1.8341,1.8346,1.8347,1.839,1.8339,1.8341,1.8342,1.8343,1.8482,1.8485,0,0,0,0,0,0,1.8372,1.8371,1.8398,1.8397,1.8363,1.836,1.8359,1.8367,1.8358,1.8354,1.8345,1.834,1.8344,1.8345,1.8347,1.8415,1.8341,1.8343,1.8344,1.848,1.8483,1.8485,0,0,0,0,0,0,1.8371,1.8375,1.8398,1.8383,1.8385,1.8363,1.8374,1.8369,1.8373,1.8356,1.8352,1.8354,1.8342,1.8344,1.838,1.8414,1.8344,1.8346,1.8477,1.8481,1.8484,1.8552,0,0,0,0,0,0,1.8371,1.8375,1.8395,1.8384,1.8386,1.843,1.8376,1.837,1.8377,1.8371,1.8364,1.836,1.834,1.8378,1.8382,1.8416,1.8347,1.8474,1.8478,1.8483,1.8546,1.8557,1.8567,0,0,0,0,0,1.8369,1.8414,1.8396,1.84,1.841,1.8432,1.8433,1.8408,1.838,1.8401,1.839,1.836,1.841,1.8382,1.8386,1.8421,1.8471,1.8477,1.8483,1.8542,1.8555,1.8566,0,0,0,0,0,0,1.843,1.8412,1.8392,1.8434,1.8435,1.8422,1.8447,1.8423,1.8432,1.8426,1.8396,1.8395,1.8437,1.8433,1.8401,1.8478,1.8436,1.8443,1.8479,1.8492,1.8502,1.8502,1.8349,0,0,0,0,0,1.8448,1.8466,1.8449,1.8488,1.849,1.8469,1.8477,1.8459,1.8458,1.8459,1.845,1.8452,1.8469,1.848,1.8494,1.8546,1.8545,1.8572,1.8583,1.8591,1.8598,1.8628,1.8641,1.8504,1.8504,1.8504,0,0,1.8486,1.8478,1.8491,1.8501,1.8499,1.852,1.8469,1.8493,1.8508,1.8462,1.8496,1.8491,1.8491,1.8536,1.8556,1.8534,1.8635,1.8598,1.8605,1.8607,1.8635,1.8648,1.866,1.8508,1.8507,1.8506,0,0,1.8565,1.8561,1.8594,1.8594,1.8592,1.8578,1.8587,1.8578,1.8573,1.8606,1.8573,1.8592,1.862,1.8623,1.8628,1.8713,1.8687,1.8718,1.8771,1.8801,1.8812,1.8821,1.8854,1.8865,1.8724,1.8725,1.8725,0,1.8613,1.8641,1.8614,1.864,1.8647,1.8606,1.8641,1.8643,1.8646,1.8652,1.8628,1.8665,1.8662,1.8708,1.873,1.8734,1.8745,1.8718,1.8812,1.8822,1.883,1.8861,1.8873,1.8729,1.8728,1.8728,1.8727,0,1.8701,1.8721,1.8749,1.8753,1.8763,1.8793,1.8773,1.8786,1.8768,1.8757,1.8794,1.879,1.8803,1.8813,1.8795,1.8858,1.8845,1.8817,1.8774,1.8848,1.8876,1.8887,1.8734,1.8733,1.8732,1.8731,0,0,1.8816,1.8807,1.8818,1.8821,1.8818,1.8834,1.8865,1.8878,1.8891,1.8896,1.8922,1.8948,1.8923,1.8929,1.8911,1.8937,1.9008,1.8906,1.8906,1.8927,1.9081,1.9103,1.9116,1.8991,1.8993,1.8995,1.9081,0,1.8894,1.8943,1.8922,1.8974,1.8995,1.8959,1.8986,1.8988,1.898,1.8998,1.8989,1.9009,1.8974,1.8978,1.9002,1.8994,1.9039,1.8988,1.9017,1.9018,1.9018,1.9131,1.9153,1.9235,1.9092,1.9094,1.9095,0,1.8991,1.9,1.9055,1.9052,1.9059,1.9083,1.9096,1.9112,1.9116,1.9108,1.9117,1.9094,1.9126,1.9084,1.9128,1.9094,1.9105,1.9104,1.9107,1.9109,1.9061,1.9137,1.926,1.9273,1.9112,1.9111,1.9109,0,1.9072,1.9098,1.9135,1.9139,1.9135,1.9153,1.9153,1.9154,1.9164,1.9176,1.9183,1.9198,1.9206,1.922,1.9203,1.9173,1.9251,1.9207,1.9248,1.9249,1.9266,1.9265,1.9394,1.9272,1.9272,1.9271,1.9271,0,1.9162,1.9197,1.9172,1.9195,1.9235,1.9211,1.9251,1.9247,1.9249,1.9272,1.9242,1.9265,1.9241,1.9262,1.9249,1.929,1.9294,1.929,1.9287,1.9293,1.9294,1.93,1.9295,1.9275,1.9274,1.9273,1.9273,0,1.9258,1.9243,1.9281,1.9275,1.9275,1.9305,1.93,1.9322,1.9313,1.9343,1.9349,1.9336,1.9359,1.9344,1.9368,1.936,1.9413,1.9401,1.9412,1.9409,1.9452,1.9449,1.959,1.9608,1.9474,1.9475,1.9476,0,1.9317,1.9343,1.9341,1.9354,1.9356,1.9377,1.9388,1.9367,1.938,1.9388,1.941,1.9431,1.9447,1.9487,1.948,1.9499,1.9488,1.9537,1.9491,1.9498,1.9491,1.949,1.9494,1.9546,1.9547,1.9549,1.955,0,1.9423,1.9415,1.9431,1.9447,1.9461,1.9472,1.948,1.9493,1.9472,1.9489,1.9513,1.9525,1.9551,1.9573,1.959,1.9591,1.9568,1.9564,1.9575,1.9583,1.9589,1.9588,1.9439,1.9561,1.956,1.9559,1.9558,1.9558,1.9504,1.9527,1.953,1.955,1.9555,1.9564,1.9586,1.958,1.9599,1.9618,1.9605,1.9634,1.964,1.966,1.9665,1.9689,1.967,1.9685,1.9689,1.9694,1.9701,1.9585,1.9692,1.9692,1.9691,1.9691,1.9691,0,1.961,1.9611,1.963,1.9643,1.9661,1.9637,1.9646,1.9663,1.9688,1.9696,1.9712,1.9742,1.9764,1.9761,1.9782,1.9802,1.9792,1.9808,1.9807,1.9809,1.9715,1.9705,1.9816,1.9816,1.9816,1.9816,1.9816,1.9816,1.9667,1.9706,1.9699,1.9741,1.9742,1.977,1.9778,1.9788,1.9793,1.9828,1.9846,1.9843,1.9847,1.9869,1.989,1.9888,1.9898,1.9919,1.9914,1.9827,1.9815,1.9803,1.9793,1.9921,1.9921,2.0005,2.0005,2.0006]}]]